STARLINK-37584, 69844

Orbit data source: Space-Track

STARLINK-37584, 69844 is a payload satellite owned by SpaceX/Seattle (US) in LEO that was launched on Sun, 05 Jul 2026 UTC via an FALCON 9 launch vehicle from the Air Force Eastern Test Range (AFETR). Payload-class satellites include a variety of spacecraft equipped with specific instruments for various scientific and technological missions. These include communications satellites like Starlink; space stations such as the ISS; scientific satellites like the Hubble; Earth observation satellites from companies like Planet Labs, Umbra, and HawkEye 360; GPS; miniature CubeSats for education and research; and military/defense satellites.

Loading next visibility...
Identifier
69844, 2026-154AB
Orbit
LEO
Country
Flag of USUS
Related business
Manufacturer
SpaceX/Seattle
Mission
Operational spacecraft
Bus & Motor
STARLINK V2MO, Unknown motor
Mass
575 kg wet, ~530 kg dry
Launch date (UTC)
2026-07-05 (2 months ago)
Launch vehicle
FALCON 9
Launch site
Air Force Eastern Test Range (AFETR)
Object type
Payload
Rocket body
Debris
Shape & HBR
BOX + PAN, 17.7 m
Radar Cross Section
Large (>1 m²)

Expand to show TLE details & history
Last TLE update: 7 hours ago

TLE from 7 hours ago
0 STARLINK-37584
1 69844U 26154AB  26236.63850145  .00031674  00000-0  91470-3 0  9995
2 69844  53.1592  97.3068 0004773 311.2202  48.8389 15.35406102  9111
Epoch: 2026-08-24T15:19Z
TLE epoch observation values (Epoch: 2026-08-24T15:19:26.525Z)
Latitude
-0.00003°
Longitude
-105.47107°
Altitude
458.469 km
Speed
7.64 km/s
True Right ascension
06h 29m 13s
True Declination
0° 00' 00"
Sunlit
Object was in daylight at epoch
Visualization orbit readout
Latitude
Unknown
Longitude
Unknown
Altitude
Unknown
Speed
Unknown
Apparent Right ascension
Unknown
Apparent Declination
Unknown
Sunlit
N/A
Visualization observer readout
Local Sidereal Time
13:46:40
Azimuth
Unknown
Elevation
Unknown
Doppler factor
Unknown
Orbital elements
Apogee altitude
463.235 km
Perigee altitude
456.708 km
Semi-major axis
6,838.109 km
Eccentricity
0.00048
Inclination
53.1592°
RAAN
97.3068°
Arg. of periapsis
311.2202°
True anomaly
48.88009°
Mean anomaly
48.8389°
Eccentric anomaly
48.8595°
Mean motion
3.8383 °/min
Orbital period
93.79 mins
BSTAR
0.0009147
Loading maneuver chart data...
Computing Atmospheric mass density...
Loading historical data...
Loading historical data...
Loading historical data...
Loading historical data...
Loading historical data...
Loading historical data...
Loading historical data...

Documentation

Showing up to 5 results
|